Volver al catálogo

FENGYUN 1C DEB

ActivoSSO
NORAD 31620·DEBRIS·🇨🇳 China

Lanzado May 10, 1999 desde Taiyuan Satellite Launch Center

Loading…

Próximos Pases (próximas 24 horas)

TLE

EnvejeciendoSource: Space-Track

Época: Sep 8, 2026, 02:07 UTC

1 31620U 99025CAA 26251.08855867  .00003962  00000-0  12591-2 0  9990
2 31620  98.8824 349.6805 0018154 323.4251  36.5696 14.40419110697188

Sigue FENGYUN 1C DEB en tiempo real con AllMySat

Download on the App Store